Location: Il Ritiro
(43.4167°N, 13.1333°E)
Time: 17:03:05
(UTC+00:00)

Cosmos 1892 - Pass Details

Date: 05 July 2020
Orbit: 505 x 524 km, 82.5° (Epoch: 11 August)

Event Time Altitude Azimuth Distance (km) Brightness Sun altitude
Exits shadow 21:06:51 33° 102° (ESE) 864 3.4 -17.9°
Maximum altitude 21:07:09 34° 92° (E) 855 3.5 -17.9°
Drops below altitude 10° 21:10:36 10° 26° (NNE) 1,737 5.8 -18.2°
Sets 21:12:52 0° 18° (NNE) 2,632 7.0 -18.4°
